Location: Molino di Ancona
(43.6167°N, 13.3667°E)
Time: 15:31:49
(UTC+00:00)

Cosmos 1302 Rocket - Pass Details

Date: 15 December 2019
Orbit: 757 x 775 km, 74.0° (Epoch: 27 January)

Event Time Altitude Azimuth Distance (km) Brightness Sun altitude
Rises 05:16:27 0° 207° (SSW) 3,238 7.2 -13.2°
Reaches altitude 10° 05:18:50 10° 210° (SSW) 2,316 6.4 -12.8°
Maximum altitude 05:24:04 66° 292° (WNW) 845 4.0 -11.9°
Drops below altitude 10° 05:29:21 10° 15° (NNE) 2,332 6.4 -11.0°
Sets 05:31:46 0° 19° (NNE) 3,262 7.2 -10.6°
